Location: Little Elm
(33.1626°N, 96.9375°W)
Time: 10:03:45
(UTC+00:00)

Envisat - Pass Details

Date: 23 May 2022
Orbit: 764 x 765 km, 98.2° (Epoch: 30 June)

Event Time Altitude Azimuth Distance (km) Brightness Sun altitude
Rises 10:04:31 0° 29° (NNE) 3,233 7.5 -14.9°
Reaches altitude 10° 10:07:18 10° 44° (NE) 2,303 6.9 -14.4°
Maximum altitude 10:11:15 23° 95° (E) 1,590 5.2 -13.8°
Drops below altitude 10° 10:15:11 10° 147° (SSE) 2,291 5.4 -13.1°
Sets 10:17:56 0° 162° (SSE) 3,212 6.1 -12.6°
